Location: Dana
(41.8364°N, 106.7042°W)
Time: 00:22:51
(UTC+00:00)

Explorer 7 - All Passes

Search period start: 12 May 2026 00:00
Search period end: 22 May 2026 00:00
Orbit: 427 x 536 km, 50.2° (Epoch: 11 May)

Date Brightness Start Highest point End Pass type
(mag) Time Alt. Az. Time Alt. Az. Time Alt. Az.
12 May - 12:26:20 10° SSW 12:29:34 33° SE 12:32:55 10° ENE daylight
12 May - 14:04:16 10° W 14:07:47 44° NNW 14:11:28 10° NE daylight
12 May - 15:43:42 10° WNW 15:46:47 23° N 15:49:56 10° NE daylight
12 May - 17:22:25 10° NW 17:25:54 31° NNE 17:29:29 10° E daylight
12 May - 19:00:34 10° WNW 19:04:31 76° SW 19:08:34 10° SE daylight
12 May - 20:40:33 10° WSW 20:42:20 13° SW 20:44:07 10° SSW daylight
13 May - 11:58:45 10° SSW 12:01:54 30° SE 12:05:09 10° ENE daylight
13 May - 13:36:33 10° W 13:40:04 47° NNW 13:43:44 10° NE daylight
13 May - 15:15:58 10° WNW 15:19:01 23° N 15:22:11 10° NE daylight
13 May - 16:54:43 10° NW 16:58:09 30° NNE 17:01:41 10° ENE daylight
13 May - 18:32:51 10° WNW 18:36:48 82° SW 18:40:50 10° SE daylight
13 May - 20:12:35 10° W 20:14:39 14° SW 20:16:44 10° SSW daylight
14 May - 11:31:11 10° SSW 11:34:13 27° SE 11:37:21 10° ENE daylight
14 May - 13:08:50 10° WSW 13:12:20 49° NNW 13:16:00 10° NE daylight
14 May - 14:48:14 10° WNW 14:51:16 23° N 14:54:25 10° NE daylight
14 May - 16:27:01 10° NW 16:30:25 29° NNE 16:33:53 10° ENE daylight
14 May - 18:05:09 10° WNW 18:09:05 87° SSW 18:13:06 10° SE daylight
14 May - 19:44:39 10° W 19:46:57 15° SW 19:49:16 10° SSW daylight
15 May - 11:03:36 10° SSW 11:06:31 25° SE 11:09:33 10° E visible
15 May - 12:41:06 10° WSW 12:44:36 52° NNW 12:48:16 10° NE daylight
15 May - 14:20:29 10° WNW 14:23:30 23° N 14:26:38 10° NE daylight
15 May - 15:59:20 10° NW 16:02:39 28° NNE 16:06:04 10° ENE daylight
15 May - 17:37:26 10° WNW 17:41:21 87° NE 17:45:21 10° ESE daylight
15 May - 19:16:46 10° W 19:19:15 16° SW 19:21:46 10° S daylight
16 May - 10:36:02 10° S 10:38:50 23° SE 10:41:42 10° E visible
16 May - 12:13:22 10° WSW 12:16:52 56° NNW 12:20:31 10° NE daylight
16 May - 13:52:43 10° WNW 13:55:44 23° N 13:58:51 10° NE daylight
16 May - 15:31:37 10° NW 15:34:52 27° NNE 15:38:14 10° ENE daylight
16 May - 17:09:43 10° WNW 17:13:35 81° NNE 17:17:34 10° ESE daylight
16 May - 18:48:53 10° W 18:51:32 17° SW 18:54:14 10° S daylight
17 May - 10:08:28 10° S 10:11:08 21° SE 10:13:51 10° E visible
17 May - 11:45:37 10° WSW 11:49:07 60° NNW 11:52:45 10° NE daylight
17 May - 13:24:57 10° WNW 13:27:57 23° N 13:31:02 10° NE daylight
17 May - 15:03:53 10° NW 15:07:05 26° NNE 15:10:23 10° ENE daylight
17 May - 16:41:59 10° NW 16:45:49 76° NNE 16:49:47 10° ESE daylight
17 May - 18:21:01 10° W 18:23:49 19° SW 18:26:39 10° S daylight
18 May - 09:40:55 10° S 09:43:25 19° SE 09:45:59 10° E visible
18 May - 11:17:52 10° WSW 11:21:22 64° NNW 11:24:59 10° NE daylight
18 May - 12:57:10 10° WNW 13:00:09 24° N 13:03:15 10° NE daylight
18 May - 14:36:09 10° NW 14:39:17 25° N 14:42:32 10° ENE daylight
18 May - 16:14:15 10° NW 16:18:03 71° NNE 16:21:59 10° ESE daylight
18 May - 17:53:10 10° W 17:56:05 20° SW 17:59:03 10° S daylight
19 May - 09:13:23 10° S 09:15:43 17° SE 09:18:04 10° E visible
19 May - 10:50:07 10° WSW 10:53:36 69° NNW 10:57:12 10° NE visible
19 May - 12:29:22 10° WNW 12:32:21 24° N 12:35:27 10° NE daylight
19 May - 14:08:24 10° NW 14:11:29 24° N 14:14:40 10° ENE daylight
19 May - 15:46:30 10° NW 15:50:16 66° NNE 15:54:10 10° ESE daylight
19 May - 17:25:19 10° W 17:28:19 22° SW 17:31:24 10° S daylight
20 May - 08:45:52 10° S 08:47:59 15° SE 08:50:08 10° E visible
20 May - 10:22:22 10° WSW 10:25:50 74° NNW 10:29:25 10° NE visible
20 May - 12:01:34 10° WNW 12:04:33 24° N 12:07:38 10° NE daylight
20 May - 13:40:38 10° NW 13:43:41 24° N 13:46:48 10° ENE daylight
20 May - 15:18:45 10° NW 15:22:29 61° NNE 15:26:20 10° ESE daylight
20 May - 16:57:28 10° W 17:00:34 23° SW 17:03:44 10° S daylight
21 May - 08:18:22 10° SSE 08:20:15 14° SE 08:22:09 10° E visible
21 May - 09:54:36 10° WSW 09:58:03 80° NNW 10:01:38 10° ENE visible
21 May - 11:33:45 10° WNW 11:36:44 25° NNW 11:39:49 10° NE daylight
21 May - 13:12:52 10° NW 13:15:51 23° N 13:18:55 10° ENE daylight
21 May - 14:51:00 10° NW 14:54:41 57° NNE 14:58:30 10° ESE daylight
21 May - 16:29:37 10° W 16:32:48 25° SW 16:36:04 10° SSE daylight
